| time (UTC) | temp F | wind direction | speed knots | gust knots | rain 1hr in | rain 24hr in | rain mn in | humidity % | barometer mb |
| 20260510201931 | 79 | 200 | 0.9 | 7.8 | 0.00 | 0.11 | 0.00 | 51 | 1009.8 |
| 20260510201431 | 79 | 278 | 5.2 | 6.1 | 0.00 | 0.11 | 0.00 | 50 | 1009.8 |
| 20260510200931 | 79 | 177 | 0.9 | 5.2 | 0.00 | 0.11 | 0.00 | 50 | 1009.8 |
| 20260510200430 | 80 | 252 | 4.3 | 8.7 | 0.00 | 0.11 | 0.00 | 50 | 1009.8 |
| 20260510195931 | 79 | 194 | 3.5 | 6.1 | 0.00 | 0.11 | 0.00 | 50 | 1009.8 |
| 20260510195433 | 79 | 281 | 4.3 | 9.6 | 0.00 | 0.11 | 0.00 | 52 | 1009.8 |
| 20260510194931 | 79 | 302 | 4.3 | 9.6 | 0.00 | 0.11 | 0.00 | 53 | 1009.8 |
| 20260510194431 | 78 | 260 | 6.1 | 7.8 | 0.00 | 0.11 | 0.00 | 52 | 1010.0 |
| 20260510193931 | 78 | 279 | 5.2 | 7.8 | 0.00 | 0.11 | 0.00 | 53 | 1010.0 |
| 20260510193430 | 78 | 315 | 3.5 | 8.7 | 0.00 | 0.11 | 0.00 | 52 | 1010.0 |
| 20260510192931 | 78 | 305 | 2.6 | 7.0 | 0.00 | 0.11 | 0.00 | 52 | 1010.3 |
| 20260510192431 | 78 | 314 | 4.3 | 8.7 | 0.00 | 0.11 | 0.00 | 51 | 1010.3 |
| 20260510191931 | 79 | 250 | 3.5 | 12.2 | 0.00 | 0.11 | 0.00 | 50 | 1010.3 |
| 20260510191433 | 79 | 320 | 4.3 | 8.7 | 0.00 | 0.11 | 0.00 | 50 | 1010.3 |
| 20260510190931 | 79 | 267 | 6.1 | 8.7 | 0.00 | 0.11 | 0.00 | 49 | 1010.3 |
| 20260510190431 | 80 | 286 | 6.1 | 7.8 | 0.00 | 0.11 | 0.00 | 47 | 1010.3 |
| 20260510185930 | 79 | 274 | 6.1 | 12.2 | 0.00 | 0.11 | 0.00 | 48 | 1010.2 |
| 20260510185431 | 79 | 238 | 6.1 | 11.3 | 0.00 | 0.11 | 0.00 | 47 | 1010.2 |
| 20260510184933 | 79 | 187 | 6.1 | 7.0 | 0.00 | 0.11 | 0.00 | 46 | 1010.2 |
| 20260510184430 | 79 | 223 | 3.5 | 7.8 | 0.00 | 0.11 | 0.00 | 48 | 1010.3 |
| 20260510183933 | 79 | 291 | 8.7 | 8.7 | 0.00 | 0.11 | 0.00 | 48 | 1010.3 |
| 20260510183430 | 80 | 297 | 4.3 | 9.6 | 0.00 | 0.11 | 0.00 | 47 | 1010.3 |
| 20260510182930 | 80 | 304 | 3.5 | 10.4 | 0.00 | 0.11 | 0.00 | 49 | 1010.3 |
| 20260510182431 | 80 | 211 | 1.7 | 8.7 | 0.00 | 0.11 | 0.00 | 52 | 1010.3 |
| 20260510181930 | 79 | 338 | 6.1 | 7.8 | 0.00 | 0.11 | 0.00 | 50 | 1010.3 |
| 20260510181430 | 79 | 184 | 3.5 | 7.8 | 0.00 | 0.11 | 0.00 | 51 | 1010.3 |
| 20260510180930 | 79 | 238 | 1.7 | 6.1 | 0.00 | 0.11 | 0.00 | 52 | 1010.3 |
| 20260510180431 | 79 | 270 | 3.5 | 7.0 | 0.00 | 0.11 | 0.00 | 51 | 1010.3 |
| 20260510175930 | 78 | 296 | 7.0 | 11.3 | 0.00 | 0.11 | 0.00 | 54 | 1010.3 |
| 20260510175430 | 78 | 297 | 5.2 | 8.7 | 0.00 | 0.11 | 0.00 | 53 | 1010.3 |
| 20260510174930 | 78 | 271 | 3.5 | 6.1 | 0.00 | 0.11 | 0.00 | 54 | 1010.3 |
| 20260510174430 | 78 | 252 | 4.3 | 5.2 | 0.00 | 0.11 | 0.00 | 55 | 1010.3 |
| 20260510173930 | 78 | 172 | 2.6 | 5.2 | 0.00 | 0.11 | 0.00 | 57 | 1010.3 |
| 20260510173430 | 78 | 165 | 2.6 | 7.0 | 0.00 | 0.11 | 0.00 | 55 | 1010.3 |
| 20260510172930 | 78 | 323 | 4.3 | 7.0 | 0.00 | 0.11 | 0.00 | 56 | 1010.3 |
| 20260510172430 | 77 | 303 | 0.9 | 3.5 | 0.00 | 0.11 | 0.00 | 57 | 1010.3 |
| 20260510171930 | 77 | 166 | 2.6 | 5.2 | 0.00 | 0.11 | 0.00 | 57 | 1010.3 |
| 20260510171430 | 77 | 222 | 2.6 | 3.5 | 0.00 | 0.11 | 0.00 | 59 | 1010.3 |
| 20260510170930 | 77 | 185 | 1.7 | 4.3 | 0.00 | 0.11 | 0.00 | 58 | 1010.3 |
| 20260510170430 | 77 | 305 | 0.9 | 5.2 | 0.00 | 0.11 | 0.00 | 63 | 1010.3 |
| 20260510165930 | 76 | 177 | 1.7 | 5.2 | 0.00 | 0.11 | 0.00 | 61 | 1010.5 |
| 20260510165430 | 76 | 169 | 3.5 | 6.1 | 0.00 | 0.11 | 0.00 | 61 | 1010.5 |
| 20260510164933 | 76 | 188 | 3.5 | 7.0 | 0.00 | 0.11 | 0.00 | 63 | 1010.5 |
| 20260510164430 | 75 | 257 | 1.7 | 3.5 | 0.00 | 0.11 | 0.00 | 64 | 1010.6 |
| 20260510163930 | 74 | 279 | 0.9 | 7.8 | 0.00 | 0.11 | 0.00 | 61 | 1010.6 |
| 20260510163430 | 74 | 159 | 4.3 | 4.3 | 0.00 | 0.11 | 0.00 | 66 | 1010.6 |
| 20260510162930 | 74 | 263 | 2.6 | 6.1 | 0.00 | 0.11 | 0.00 | 64 | 1010.6 |
| 20260510162430 | 73 | 246 | 4.3 | 6.1 | 0.00 | 0.11 | 0.00 | 66 | 1010.6 |
| 20260510161930 | 73 | 202 | 1.7 | 2.6 | 0.00 | 0.11 | 0.00 | 70 | 1010.6 |
| 20260510161430 | 72 | 24 | 1.7 | 3.5 | 0.00 | 0.11 | 0.00 | 69 | 1010.8 |
| 20260510160930 | 72 | 46 | 0.9 | 5.2 | 0.00 | 0.11 | 0.00 | 69 | 1010.8 |
| 20260510160430 | 71 | 338 | 5.2 | 7.0 | 0.00 | 0.11 | 0.00 | 69 | 1010.8 |
| 20260510155930 | 71 | 286 | 7.0 | 7.0 | 0.00 | 0.11 | 0.00 | 71 | 1011.0 |
| 20260510155430 | 71 | 239 | 2.6 | 4.3 | 0.00 | 0.11 | 0.00 | 71 | 1011.0 |
| 20260510154930 | 71 | 235 | 0.9 | 3.5 | 0.00 | 0.11 | 0.00 | 73 | 1011.0 |
| 20260510154430 | 70 | 183 | 1.7 | 3.5 | 0.00 | 0.11 | 0.00 | 74 | 1010.9 |
| 20260510153930 | 69 | 309 | 2.6 | 3.5 | 0.00 | 0.11 | 0.00 | 76 | 1010.9 |
| 20260510153430 | 68 | 185 | 0.9 | 2.6 | 0.00 | 0.11 | 0.00 | 77 | 1010.9 |
| 20260510152930 | 68 | 223 | 1.7 | 2.6 | 0.00 | 0.11 | 0.00 | 82 | 1011.2 |
| 20260510152430 | 67 | 157 | 1.7 | 2.6 | 0.00 | 0.11 | 0.00 | 82 | 1011.2 |
| 20260510151933 | 66 | 161 | 0.9 | 3.5 | 0.00 | 0.11 | 0.00 | 83 | 1011.2 |
| 20260510151430 | 65 | 229 | 0.9 | 1.7 | 0.00 | 0.11 | 0.00 | 87 | 1011.1 |
| 20260510150930 | 64 | 196 | 0.9 | 1.7 | 0.00 | 0.11 | 0.00 | 88 | 1011.1 |
| 20260510150430 | 64 | 292 | 0.0 | 3.5 | 0.00 | 0.11 | 0.00 | 89 | 1011.1 |
| 20260510145930 | 63 | 205 | 1.7 | 3.5 | 0.00 | 0.11 | 0.00 | 91 | 1011.0 |
| 20260510145430 | 62 | 329 | 2.6 | 4.3 | 0.00 | 0.11 | 0.00 | 91 | 1011.0 |
| 20260510144930 | 61 | 302 | 0.9 | 3.5 | 0.00 | 0.11 | 0.00 | 92 | 1011.0 |
| 20260510144430 | 61 | 319 | 2.6 | 3.5 | 0.00 | 0.11 | 0.00 | 92 | 1011.3 |
| 20260510143930 | 61 | 321 | 1.7 | 2.6 | 0.00 | 0.11 | 0.00 | 93 | 1011.3 |
| 20260510143430 | 60 | 53 | 0.0 | 1.7 | 0.00 | 0.11 | 0.00 | 93 | 1011.3 |
| 20260510142930 | 60 | 121 | 1.7 | 2.6 | 0.00 | 0.11 | 0.00 | 94 | 1011.1 |
| 20260510142433 | 59 | 202 | 0.0 | 0.0 | 0.00 | 0.11 | 0.00 | 94 | 1011.1 |
| 20260510141930 | 59 | 36 | 0.0 | 0.0 | 0.00 | 0.11 | 0.00 | 95 | 1011.1 |
| 20260510141430 | 58 | 36 | 0.0 | 2.6 | 0.00 | 0.11 | 0.00 | 95 | 1011.3 |
| 20260510140930 | 58 | 200 | 0.0 | 2.6 | 0.00 | 0.11 | 0.00 | 95 | 1011.3 |
| 20260510140430 | 57 | 300 | 0.0 | 0.0 | 0.00 | 0.11 | 0.00 | 95 | 1011.3 |
| 20260510135933 | 57 | 295 | 0.0 | 1.7 | 0.00 | 0.11 | 0.00 | 95 | 1010.9 |
| 20260510135430 | 57 | 306 | 0.0 | 1.7 | 0.00 | 0.11 | 0.00 | 95 | 1010.9 |
| 20260510134933 | 57 | 306 | 0.0 | 2.6 | 0.00 | 0.11 | 0.00 | 96 | 1010.9 |
| 20260510134433 | 57 | 348 | 0.0 | 0.0 | 0.00 | 0.11 | 0.00 | 95 | 1010.9 |
| 20260510133933 | 56 | 348 | 0.0 | 0.9 | 0.00 | 0.11 | 0.00 | 96 | 1010.9 |
| 20260510133430 | 56 | 202 | 0.0 | 1.7 | 0.00 | 0.11 | 0.00 | 96 | 1010.9 |
| 20260510132930 | 56 | 202 | 0.0 | 1.7 | 0.00 | 0.11 | 0.00 | 95 | 1011.3 |
| 20260510132433 | 56 | 202 | 0.0 | 0.0 | 0.00 | 0.11 | 0.00 | 96 | 1011.3 |
| 20260510131930 | 56 | 202 | 0.0 | 2.6 | 0.00 | 0.11 | 0.00 | 96 | 1011.3 |
| 20260510131430 | 56 | 157 | 0.9 | 2.6 | 0.00 | 0.11 | 0.00 | 95 | 1010.9 |
| 20260510130930 | 55 | 316 | 0.0 | 0.9 | 0.00 | 0.11 | 0.00 | 95 | 1010.9 |
| 20260510130430 | 55 | 316 | 0.0 | 0.9 | 0.00 | 0.11 | 0.00 | 96 | 1010.9 |
| 20260510125933 | 55 | 316 | 0.0 | 1.7 | 0.00 | 0.11 | 0.00 | 95 | 1010.8 |
| 20260510125430 | 55 | 316 | 0.9 | 0.9 | 0.00 | 0.11 | 0.00 | 95 | 1010.8 |
| 20260510124930 | 55 | 316 | 0.0 | 2.6 | 0.00 | 0.11 | 0.00 | 95 | 1010.8 |
| 20260510124430 | 54 | 316 | 0.0 | 0.0 | 0.00 | 0.11 | 0.00 | 95 | 1010.4 |
| 20260510123930 | 54 | 316 | 0.0 | 0.0 | 0.00 | 0.11 | 0.00 | 95 | 1010.4 |
| 20260510123433 | 54 | 316 | 0.0 | 1.7 | 0.00 | 0.11 | 0.00 | 95 | 1010.4 |
| 20260510122930 | 54 | 316 | 0.0 | 0.9 | 0.00 | 0.11 | 0.00 | 95 | 1010.6 |
| 20260510122430 | 54 | 316 | 0.0 | 0.9 | 0.00 | 0.11 | 0.00 | 95 | 1010.6 |
| 20260510121933 | 54 | 316 | 0.9 | 1.7 | 0.00 | 0.11 | 0.00 | 95 | 1010.6 |
| 20260510121430 | 54 | 316 | 0.0 | 2.6 | 0.00 | 0.11 | 0.00 | 95 | 1010.6 |
| 20260510120930 | 53 | 325 | 0.0 | 1.7 | 0.00 | 0.11 | 0.00 | 95 | 1010.6 |
| 20260510120430 | 53 | 300 | 0.0 | 0.0 | 0.00 | 0.11 | 0.00 | 95 | 1010.6 |
| 20260510115930 | 53 | 298 | 0.0 | 0.9 | 0.00 | 0.11 | 0.00 | 95 | 1010.3 |
| 20260510115430 | 53 | 298 | 0.9 | 2.6 | 0.00 | 0.11 | 0.00 | 95 | 1010.3 |
| 20260510114933 | 53 | 309 | 2.6 | 2.6 | 0.00 | 0.11 | 0.00 | 95 | 1010.3 |
| 20260510114430 | 53 | 331 | 0.9 | 2.6 | 0.00 | 0.11 | 0.00 | 95 | 1010.3 |
| 20260510113930 | 53 | 331 | 1.7 | 3.5 | 0.00 | 0.11 | 0.00 | 95 | 1010.3 |
| 20260510113430 | 53 | 15 | 0.0 | 3.5 | 0.00 | 0.11 | 0.00 | 95 | 1010.3 |
| 20260510112932 | 53 | 331 | 1.7 | 3.5 | 0.00 | 0.11 | 0.00 | 95 | 1010.2 |
| 20260510112430 | 53 | 333 | 2.6 | 4.3 | 0.00 | 0.11 | 0.00 | 95 | 1010.2 |
| 20260510111930 | 53 | 5 | 0.9 | 2.6 | 0.00 | 0.11 | 0.00 | 95 | 1010.2 |
| 20260510111430 | 53 | 23 | 2.6 | 3.5 | 0.00 | 0.11 | 0.00 | 95 | 1009.9 |
| 20260510110932 | 53 | 69 | 2.6 | 3.5 | 0.00 | 0.11 | 0.00 | 95 | 1009.9 |
| 20260510110429 | 53 | 83 | 1.7 | 1.7 | 0.00 | 0.11 | 0.00 | 95 | 1009.9 |
| 20260510105930 | 53 | 10 | 0.0 | 2.6 | 0.00 | 0.11 | 0.00 | 95 | 1009.8 |
| 20260510105432 | 53 | 14 | 0.9 | 3.5 | 0.00 | 0.11 | 0.00 | 95 | 1009.8 |
| 20260510104932 | 52 | 318 | 1.7 | 4.3 | 0.00 | 0.11 | 0.00 | 95 | 1009.8 |
| 20260510104432 | 52 | 337 | 0.9 | 5.2 | 0.00 | 0.11 | 0.00 | 95 | 1009.6 |
| 20260510103930 | 52 | 126 | 0.9 | 4.3 | 0.00 | 0.11 | 0.00 | 95 | 1009.6 |
| 20260510103429 | 52 | 34 | 0.9 | 4.3 | 0.00 | 0.11 | 0.00 | 95 | 1009.6 |
| 20260510102930 | 52 | 36 | 1.7 | 3.5 | 0.00 | 0.11 | 0.00 | 95 | 1009.5 |
| 20260510102432 | 51 | 90 | 0.0 | 1.7 | 0.00 | 0.11 | 0.00 | 95 | 1009.5 |
| 20260510101931 | 51 | 347 | 0.0 | 0.0 | 0.00 | 0.11 | 0.00 | 95 | 1009.5 |
| 20260510101430 | 51 | 347 | 0.0 | 0.0 | 0.00 | 0.11 | 0.00 | 95 | 1009.5 |
| 20260510100929 | 51 | 347 | 0.0 | 1.7 | 0.00 | 0.11 | 0.00 | 95 | 1009.5 |
| 20260510100429 | 51 | 347 | 0.0 | 0.9 | 0.00 | 0.11 | 0.00 | 94 | 1009.5 |
| 20260510095929 | 51 | 347 | 0.0 | 1.7 | 0.00 | 0.11 | 0.00 | 94 | 1009.6 |
| 20260510095429 | 51 | 347 | 0.0 | 0.9 | 0.00 | 0.11 | 0.00 | 94 | 1009.6 |
| 20260510094932 | 51 | 315 | 0.0 | 0.0 | 0.00 | 0.11 | 0.00 | 94 | 1009.6 |
| 20260510094432 | 51 | 315 | 0.0 | 0.0 | 0.00 | 0.11 | 0.00 | 94 | 1009.4 |
| 20260510093929 | 50 | 315 | 0.0 | 4.3 | 0.00 | 0.11 | 0.00 | 94 | 1009.4 |
| 20260510093429 | 50 | 335 | 3.5 | 3.5 | 0.00 | 0.11 | 0.00 | 94 | 1009.4 |
| 20260510092932 | 50 | 320 | 0.9 | 5.2 | 0.00 | 0.11 | 0.00 | 94 | 1009.6 |
| 20260510092429 | 50 | 65 | 0.0 | 3.5 | 0.00 | 0.11 | 0.00 | 94 | 1009.6 |
| 20260510091929 | 50 | 308 | 1.7 | 6.1 | 0.00 | 0.11 | 0.00 | 94 | 1009.6 |
| 20260510091429 | 50 | 53 | 0.9 | 7.0 | 0.00 | 0.11 | 0.00 | 94 | 1009.5 |
| 20260510090929 | 50 | 292 | 4.3 | 6.1 | 0.00 | 0.11 | 0.00 | 94 | 1009.5 |
| 20260510090431 | 50 | 300 | 7.0 | 7.0 | 0.00 | 0.11 | 0.00 | 94 | 1009.5 |
| 20260510085929 | 50 | 328 | 2.6 | 8.7 | 0.00 | 0.11 | 0.00 | 94 | 1008.8 |
| 20260510085432 | 50 | 317 | 2.6 | 4.3 | 0.00 | 0.11 | 0.00 | 94 | 1008.8 |
| 20260510084929 | 50 | 344 | 0.0 | 0.0 | 0.00 | 0.11 | 0.00 | 93 | 1008.8 |
| 20260510084429 | 50 | 344 | 0.0 | 0.0 | 0.00 | 0.11 | 0.00 | 94 | 1008.8 |
| 20260510083929 | 50 | 344 | 0.0 | 0.0 | 0.00 | 0.11 | 0.00 | 94 | 1008.8 |
| 20260510083429 | 50 | 344 | 0.0 | 0.0 | 0.00 | 0.11 | 0.00 | 93 | 1008.8 |
| 20260510082929 | 50 | 344 | 0.0 | 1.7 | 0.00 | 0.11 | 0.00 | 93 | 1008.8 |
| 20260510082429 | 50 | 344 | 0.9 | 1.7 | 0.00 | 0.11 | 0.00 | 93 | 1008.8 |
| 20260510081929 | 50 | 344 | 0.0 | 0.0 | 0.00 | 0.11 | 0.00 | 93 | 1008.8 |
| 20260510081429 | 50 | 344 | 0.0 | 0.0 | 0.00 | 0.11 | 0.00 | 93 | 1008.8 |
| 20260510080929 | 50 | 344 | 0.0 | 0.0 | 0.00 | 0.11 | 0.00 | 93 | 1008.8 |
| 20260510080429 | 50 | 344 | 0.0 | 0.0 | 0.00 | 0.11 | 0.00 | 93 | 1008.8 |
| 20260510075929 | 50 | 344 | 0.0 | 1.7 | 0.00 | 0.11 | 0.00 | 93 | 1008.8 |
| 20260510075429 | 50 | 344 | 0.0 | 0.0 | 0.00 | 0.11 | 0.00 | 93 | 1008.8 |
| 20260510074929 | 50 | 344 | 0.0 | 0.9 | 0.00 | 0.11 | 0.00 | 93 | 1008.8 |
| 20260510074432 | 50 | 344 | 0.9 | 2.6 | 0.00 | 0.11 | 0.00 | 93 | 1008.8 |
| 20260510073929 | 50 | 344 | 1.7 | 2.6 | 0.00 | 0.11 | 0.00 | 93 | 1008.8 |
| 20260510073429 | 50 | 355 | 0.0 | 0.9 | 0.00 | 0.11 | 0.00 | 93 | 1008.8 |
| 20260510072929 | 50 | 355 | 0.9 | 1.7 | 0.00 | 0.11 | 0.00 | 93 | 1008.7 |
| 20260510072429 | 50 | 355 | 0.0 | 2.6 | 0.00 | 0.11 | 0.00 | 93 | 1008.7 |
| 20260510071929 | 50 | 355 | 0.0 | 0.9 | 0.00 | 0.11 | 0.00 | 93 | 1008.7 |
| 20260510071429 | 50 | 355 | 0.9 | 3.5 | 0.00 | 0.11 | 0.00 | 93 | 1008.3 |
| 20260510070929 | 50 | 311 | 1.7 | 3.5 | 0.00 | 0.11 | 0.00 | 93 | 1008.3 |
| 20260510070429 | 50 | 350 | 2.6 | 2.6 | 0.00 | 0.11 | 0.00 | 92 | 1008.3 |
| 20260510065929 | 50 | 350 | 0.0 | 0.0 | 0.00 | 0.11 | 0.00 | 92 | 1008.3 |
| 20260510065429 | 50 | 350 | 0.0 | 1.7 | 0.00 | 0.11 | 0.00 | 93 | 1008.3 |
| 20260510064929 | 50 | 350 | 0.0 | 0.0 | 0.00 | 0.11 | 0.00 | 93 | 1008.3 |
| 20260510064429 | 50 | 350 | 0.0 | 0.0 | 0.00 | 0.11 | 0.00 | 93 | 1008.3 |
| 20260510063929 | 50 | 350 | 0.0 | 0.0 | 0.00 | 0.11 | 0.00 | 92 | 1008.3 |
| 20260510063429 | 50 | 350 | 0.0 | 1.7 | 0.00 | 0.11 | 0.00 | 92 | 1008.3 |
| 20260510062929 | 50 | 350 | 0.9 | 1.7 | 0.00 | 0.11 | 0.00 | 92 | 1008.3 |
| 20260510062429 | 50 | 350 | 0.0 | 0.9 | 0.00 | 0.11 | 0.00 | 92 | 1008.3 |
| 20260510061929 | 50 | 350 | 0.0 | 0.0 | 0.00 | 0.11 | 0.00 | 92 | 1008.3 |
| 20260510061432 | 50 | 350 | 0.0 | 0.0 | 0.00 | 0.11 | 0.00 | 92 | 1008.5 |
| 20260510060929 | 51 | 350 | 0.0 | 0.0 | 0.00 | 0.11 | 0.00 | 92 | 1008.5 |
| 20260510060429 | 51 | 350 | 0.0 | 0.0 | 0.00 | 0.11 | 0.00 | 92 | 1008.5 |
| 20260510055929 | 51 | 350 | 0.0 | 0.0 | 0.00 | 0.11 | 0.00 | 92 | 1008.7 |
| 20260510055429 | 51 | 350 | 0.0 | 0.0 | 0.00 | 0.11 | 0.00 | 92 | 1008.7 |
| 20260510054929 | 51 | 350 | 0.0 | 0.0 | 0.00 | 0.11 | 0.00 | 92 | 1008.7 |
| 20260510054432 | 51 | 350 | 0.0 | 0.0 | 0.00 | 0.11 | 0.00 | 92 | 1008.8 |
| 20260510053929 | 51 | 350 | 0.0 | 0.0 | 0.00 | 0.11 | 0.00 | 92 | 1008.8 |
| 20260510053432 | 51 | 350 | 0.0 | 0.0 | 0.00 | 0.11 | 0.00 | 92 | 1008.8 |
| 20260510052929 | 51 | 350 | 0.0 | 0.0 | 0.00 | 0.11 | 0.00 | 92 | 1008.7 |
| 20260510052429 | 51 | 350 | 0.0 | 0.0 | 0.00 | 0.11 | 0.00 | 92 | 1008.7 |
| 20260510051929 | 51 | 350 | 0.0 | 0.0 | 0.00 | 0.11 | 0.00 | 92 | 1008.7 |
| 20260510051429 | 52 | 350 | 0.0 | 0.0 | 0.00 | 0.11 | 0.00 | 92 | 1008.8 |
| 20260510050929 | 52 | 350 | 0.0 | 0.0 | 0.00 | 0.11 | 0.00 | 92 | 1008.8 |
| 20260510050429 | 52 | 350 | 0.0 | 0.0 | 0.00 | 0.11 | 0.00 | 92 | 1008.8 |
| 20260510045929 | 52 | 350 | 0.0 | 0.0 | 0.00 | 0.11 | 0.00 | 92 | 1008.8 |
| 20260510045429 | 52 | 350 | 0.0 | 0.0 | 0.00 | 0.11 | 0.00 | 92 | 1008.8 |
| 20260510044929 | 52 | 350 | 0.0 | 0.0 | 0.00 | 0.11 | 0.00 | 92 | 1008.8 |
| 20260510044429 | 52 | 350 | 0.0 | 0.0 | 0.00 | 0.11 | 0.00 | 92 | 1008.9 |
| 20260510043932 | 52 | 350 | 0.0 | 0.0 | 0.00 | 0.11 | 0.00 | 92 | 1008.9 |
| 20260510043429 | 52 | 350 | 0.0 | 0.0 | 0.00 | 0.11 | 0.00 | 91 | 1008.9 |
| 20260510042929 | 52 | 350 | 0.0 | 0.0 | 0.00 | 0.11 | 0.00 | 91 | 1008.9 |
| 20260510042429 | 52 | 350 | 0.0 | 0.0 | 0.00 | 0.11 | 0.00 | 91 | 1008.9 |
| 20260510041929 | 52 | 350 | 0.0 | 0.0 | 0.00 | 0.11 | 0.00 | 91 | 1008.9 |
| 20260510041429 | 52 | 350 | 0.0 | 0.0 | 0.00 | 0.11 | 0.00 | 92 | 1008.8 |
| 20260510040929 | 52 | 350 | 0.0 | 0.0 | 0.00 | 0.11 | 0.00 | 91 | 1008.8 |
| 20260510040429 | 52 | 350 | 0.0 | 0.0 | 0.00 | 0.11 | 0.00 | 91 | 1008.8 |
| 20260510035932 | 53 | 350 | 0.0 | 0.9 | 0.00 | 0.11 | 0.00 | 91 | 1008.8 |
| 20260510035429 | 52 | 350 | 0.9 | 1.7 | 0.00 | 0.11 | 0.00 | 91 | 1008.8 |
| 20260510034929 | 52 | 350 | 0.0 | 0.0 | 0.00 | 0.11 | 0.00 | 91 | 1008.8 |
| 20260510034429 | 52 | 350 | 0.0 | 0.0 | 0.00 | 0.11 | 0.00 | 91 | 1008.6 |
| 20260510033929 | 52 | 350 | 0.0 | 0.0 | 0.00 | 0.11 | 0.00 | 90 | 1008.6 |
| 20260510033432 | 52 | 350 | 0.0 | 0.0 | 0.00 | 0.11 | 0.00 | 90 | 1008.6 |
| 20260510032929 | 52 | 350 | 0.0 | 0.0 | 0.00 | 0.11 | 0.00 | 90 | 1008.5 |
| 20260510032429 | 53 | 350 | 0.0 | 0.0 | 0.00 | 0.11 | 0.00 | 90 | 1008.5 |
| 20260510031929 | 53 | 350 | 0.0 | 0.0 | 0.00 | 0.11 | 0.00 | 90 | 1008.5 |
| 20260510031429 | 53 | 350 | 0.0 | 0.0 | 0.00 | 0.11 | 0.00 | 90 | 1008.6 |
| 20260510030929 | 53 | 350 | 0.0 | 0.0 | 0.00 | 0.11 | 0.00 | 90 | 1008.6 |
| 20260510030432 | 53 | 350 | 0.0 | 0.0 | 0.00 | 0.11 | 0.00 | 90 | 1008.6 |
| 20260510025929 | 53 | 350 | 0.0 | 0.0 | 0.00 | 0.11 | 0.00 | 89 | 1008.5 |
| 20260510025429 | 53 | 350 | 0.0 | 0.0 | 0.00 | 0.11 | 0.00 | 90 | 1008.5 |
| 20260510024929 | 53 | 350 | 0.0 | 0.0 | 0.00 | 0.11 | 0.00 | 90 | 1008.5 |
| 20260510024429 | 53 | 350 | 0.0 | 0.0 | 0.00 | 0.11 | 0.00 | 90 | 1008.5 |
| 20260510023931 | 53 | 350 | 0.0 | 0.0 | 0.00 | 0.11 | 0.00 | 89 | 1008.5 |
| 20260510023431 | 54 | 350 | 0.0 | 0.0 | 0.00 | 0.11 | 0.00 | 89 | 1008.5 |
| 20260510022928 | 54 | 350 | 0.0 | 0.0 | 0.00 | 0.11 | 0.00 | 89 | 1008.3 |
| 20260510022429 | 54 | 350 | 0.0 | 0.0 | 0.00 | 0.11 | 0.00 | 89 | 1008.3 |
| 20260510021929 | 54 | 350 | 0.0 | 0.0 | 0.00 | 0.11 | 0.00 | 89 | 1008.3 |
| 20260510021429 | 54 | 350 | 0.0 | 0.0 | 0.00 | 0.11 | 0.00 | 89 | 1008.3 |
| 20260510020929 | 54 | 350 | 0.0 | 0.0 | 0.00 | 0.11 | 0.00 | 89 | 1008.3 |
| 20260510020428 | 54 | 350 | 0.0 | 0.0 | 0.00 | 0.11 | 0.00 | 89 | 1008.3 |
| 20260510015929 | 54 | 350 | 0.0 | 0.0 | 0.00 | 0.11 | 0.00 | 89 | 1008.4 |
| 20260510015429 | 55 | 350 | 0.0 | 0.0 | 0.00 | 0.11 | 0.00 | 89 | 1008.4 |
| 20260510014929 | 55 | 350 | 0.0 | 0.0 | 0.00 | 0.11 | 0.00 | 89 | 1008.4 |
| 20260510014428 | 55 | 350 | 0.0 | 0.0 | 0.00 | 0.11 | 0.00 | 89 | 1008.5 |
| 20260510013929 | 55 | 350 | 0.0 | 0.0 | 0.00 | 0.11 | 0.00 | 89 | 1008.5 |
| 20260510013429 | 55 | 350 | 0.0 | 0.0 | 0.00 | 0.11 | 0.00 | 89 | 1008.5 |
| 20260510012928 | 55 | 350 | 0.0 | 0.0 | 0.00 | 0.11 | 0.00 | 89 | 1008.3 |
| 20260510012428 | 55 | 350 | 0.0 | 0.0 | 0.00 | 0.11 | 0.00 | 89 | 1008.3 |
| 20260510011929 | 55 | 350 | 0.0 | 0.0 | 0.00 | 0.11 | 0.00 | 89 | 1008.3 |
| 20260510011428 | 55 | 350 | 0.0 | 0.0 | 0.00 | 0.11 | 0.00 | 89 | 1008.2 |
| 20260510010928 | 56 | 350 | 0.0 | 0.0 | 0.00 | 0.11 | 0.00 | 89 | 1008.2 |
| 20260510010428 | 56 | 350 | 0.0 | 0.0 | 0.00 | 0.11 | 0.00 | 89 | 1008.2 |
| 20260510005928 | 56 | 350 | 0.0 | 0.0 | 0.00 | 0.11 | 0.00 | 88 | 1008.1 |
| 20260510005428 | 56 | 350 | 0.0 | 0.0 | 0.00 | 0.11 | 0.00 | 88 | 1008.1 |
| 20260510004928 | 56 | 350 | 0.0 | 0.0 | 0.00 | 0.11 | 0.00 | 88 | 1008.1 |
| 20260510004431 | 56 | 350 | 0.0 | 0.0 | 0.00 | 0.11 | 0.00 | 88 | 1007.9 |
| 20260510003928 | 57 | 350 | 0.0 | 0.0 | 0.00 | 0.11 | 0.00 | 88 | 1007.9 |
| 20260510003429 | 57 | 350 | 0.0 | 0.0 | 0.00 | 0.11 | 0.00 | 88 | 1007.9 |
| 20260510002928 | 57 | 350 | 0.0 | 0.0 | 0.00 | 0.11 | 0.00 | 88 | 1007.8 |
| 20260510002428 | 57 | 350 | 0.0 | 0.0 | 0.00 | 0.11 | 0.00 | 88 | 1007.8 |
| 20260510001928 | 57 | 350 | 0.0 | 0.0 | 0.00 | 0.11 | 0.00 | 88 | 1007.8 |
| 20260510001428 | 57 | 350 | 0.0 | 0.0 | 0.00 | 0.11 | 0.00 | 88 | 1007.8 |
| 20260510000928 | 57 | 350 | 0.0 | 0.0 | 0.00 | 0.11 | 0.00 | 88 | 1007.8 |
| 20260510000428 | 58 | 350 | 0.0 | 0.0 | 0.00 | 0.11 | 0.00 | 89 | 1007.8 |
| 20260509235928 | 58 | 350 | 0.0 | 0.0 | 0.00 | 0.11 | 0.00 | 89 | 1008.0 |
| 20260509235428 | 58 | 350 | 0.0 | 0.0 | 0.00 | 0.11 | 0.00 | 89 | 1008.0 |
| 20260509234928 | 58 | 350 | 0.0 | 0.0 | 0.00 | 0.11 | 0.00 | 88 | 1008.0 |
| 20260509234428 | 58 | 350 | 0.0 | 2.6 | 0.00 | 0.11 | 0.00 | 88 | 1007.7 |
| 20260509233930 | 58 | 350 | 0.0 | 2.6 | 0.00 | 0.11 | 0.00 | 88 | 1007.7 |
| 20260509233428 | 58 | 350 | 1.7 | 2.6 | 0.00 | 0.11 | 0.00 | 88 | 1007.7 |
| 20260509232931 | 58 | 5 | 0.0 | 3.5 | 0.00 | 0.11 | 0.00 | 88 | 1007.7 |
| 20260509232431 | 58 | 13 | 0.9 | 2.6 | 0.00 | 0.11 | 0.00 | 88 | 1007.7 |
| 20260509231928 | 58 | 45 | 0.0 | 3.5 | 0.00 | 0.11 | 0.00 | 88 | 1007.7 |
| 20260509231428 | 58 | 30 | 0.9 | 2.6 | 0.00 | 0.11 | 0.00 | 88 | 1007.7 |
| 20260509230928 | 58 | 67 | 0.0 | 4.3 | 0.00 | 0.11 | 0.00 | 88 | 1007.7 |
| 20260509230428 | 58 | 86 | 0.9 | 3.5 | 0.00 | 0.11 | 0.00 | 88 | 1007.7 |
| 20260509225928 | 58 | 44 | 0.9 | 2.6 | 0.00 | 0.11 | 0.00 | 88 | 1007.7 |
| 20260509225428 | 58 | 80 | 0.0 | 2.6 | 0.00 | 0.11 | 0.00 | 88 | 1007.7 |
| 20260509224928 | 58 | 52 | 0.9 | 4.3 | 0.00 | 0.11 | 0.00 | 87 | 1007.7 |
| 20260509224428 | 58 | 146 | 2.6 | 4.3 | 0.00 | 0.11 | 0.00 | 87 | 1007.8 |
| 20260509223928 | 58 | 109 | 0.9 | 5.2 | 0.03 | 0.11 | 0.00 | 87 | 1007.8 |
| 20260509223428 | 59 | 96 | 0.9 | 4.3 | 0.07 | 0.11 | 0.00 | 86 | 1007.8 |
| 20260509222928 | 59 | 73 | 2.6 | 5.2 | 0.11 | 0.11 | 0.00 | 85 | 1008.1 |
| 20260509222428 | 59 | 80 | 0.0 | 3.5 | 0.11 | 0.11 | 0.00 | 85 | 1008.1 |
| 20260509221928 | 59 | 9 | 0.9 | 2.6 | 0.11 | 0.11 | 0.00 | 85 | 1008.1 |
| 20260509221428 | 59 | 36 | 0.0 | 3.5 | 0.11 | 0.11 | 0.00 | 85 | 1008.3 |
| 20260509220928 | 60 | 60 | 1.7 | 2.6 | 0.11 | 0.11 | 0.00 | 84 | 1008.3 |
| 20260509220431 | 60 | 49 | 2.6 | 3.5 | 0.11 | 0.11 | 0.00 | 84 | 1008.3 |
| 20260509215931 | 60 | 40 | 0.0 | 1.7 | 0.11 | 0.11 | 0.00 | 84 | 1008.4 |
| 20260509215431 | 60 | 61 | 0.9 | 2.6 | 0.11 | 0.11 | 0.00 | 82 | 1008.4 |
| 20260509214928 | 60 | 341 | 0.9 | 2.6 | 0.11 | 0.11 | 0.00 | 81 | 1008.4 |
| 20260509214428 | 60 | 42 | 0.0 | 3.5 | 0.11 | 0.11 | 0.00 | 81 | 1008.3 |
| 20260509213928 | 61 | 288 | 0.9 | 0.9 | 0.07 | 0.07 | 0.00 | 79 | 1008.3 |
| 20260509213428 | 61 | 28 | 0.0 | 3.5 | 0.03 | 0.03 | 0.00 | 78 | 1008.3 |
| 20260509212928 | 61 | 340 | 0.9 | 5.2 | 0.00 | 0.00 | 0.00 | 75 | 1008.4 |
| 20260509212428 | 61 | 302 | 3.5 | 3.5 | 0.00 | 0.00 | 0.00 | 75 | 1008.4 |
| 20260509211928 | 61 | 277 | 0.9 | 4.3 | 0.00 | 0.00 | 0.00 | 74 | 1008.4 |
| 20260509211428 | 61 | 329 | 3.5 | 5.2 | 0.00 | 0.00 | 0.00 | 74 | 1008.2 |
| 20260509210928 | 61 | 313 | 2.6 | 4.3 | 0.00 | 0.00 | 0.00 | 73 | 1008.2 |
| 20260509210431 | 61 | 317 | 2.6 | 4.3 | 0.00 | 0.00 | 0.00 | 74 | 1008.2 |
| 20260509205928 | 62 | 5 | 1.7 | 4.3 | 0.00 | 0.00 | 0.00 | 74 | 1007.8 |
| 20260509205428 | 62 | 34 | 3.5 | 7.0 | 0.00 | 0.00 | 0.00 | 74 | 1007.8 |
| 20260509204928 | 62 | 5 | 5.2 | 6.1 | 0.00 | 0.00 | 0.00 | 74 | 1007.8 |
| 20260509204428 | 62 | 35 | 2.6 | 3.5 | 0.00 | 0.00 | 0.00 | 73 | 1007.9 |
| 20260509203928 | 62 | 351 | 0.9 | 7.8 | 0.00 | 0.00 | 0.00 | 73 | 1007.9 |
| 20260509203428 | 62 | 324 | 1.7 | 6.1 | 0.00 | 0.00 | 0.00 | 74 | 1007.9 |
| 20260509202928 | 62 | 333 | 6.1 | 7.8 | 0.00 | 0.00 | 0.00 | 75 | 1008.1 |
| 20260509202428 | 62 | 341 | 2.6 | 7.0 | 0.00 | 0.00 | 0.00 | 75 | 1008.1 |